Preview of NWS' New Version of Forecast
This preview is not operational and should not be used for support decisions.
Latest weather observations around

Hartford, Hartford-Brainard Airport (KHFD)

Using English Units (Switch to International System of Units)
Date/ Time (EST) Wind (mph) Vis. (mi) Weather Sky Cond. Temp (°F) Rel. Humidity Wind Chill (°F) Heat Index (°F) Pressure Precip. (in)
Air Dwpt 6 hour Altimeter (inHg) Sea level (inHg) 1 hr 3 hr 6 hr
Max Min
Feb 21 16:53 NW 13 10 Clear CLR 47 26     44% 41   29.93 29.93      
Feb 21 15:53 NW 9 10 Clear CLR 49 27     42% 45   29.91 29.91      
Feb 21 14:53 NW 10 10 Clear CLR 50 28     42%     29.89 29.89      
Feb 21 13:53 SE 5 10 Mostly Clear FEW045 45 36     71% 43   29.88 29.88      
Feb 21 13:00 SSE 3 10 Cloudy FEW014 SCT021 OVC037 41 36     82% 39   29.89        
Feb 21 12:53 S 5 10 Cloudy SCT014 BKN021 OVC035 40 35     83% 37   29.89 29.89      
Feb 21 12:33 Calm 10 Cloudy BKN014 OVC036 40 35     83%     29.89        
Feb 21 11:53 SSE 7 10 Mostly Clear FEW009 FEW037 38 35     89% 33   29.9 29.89      
Feb 21 10:53 SSW 5 8 Mostly Clear FEW006 35 32     88% 31   29.9 29.9      
Feb 21 10:27 S 6 8 Mostly Clear FEW008 33 30     88% 28   29.9        
Feb 21 09:53 Calm 8 Cloudy BKN009 OVC013 32 29     88%     29.91 29.91      
Feb 21 08:53 Calm 9 Cloudy FEW008 OVC013 31 27     85%     29.91 29.91      
Feb 21 07:53 N 5 10 Cloudy SCT007 OVC013 29 27     92% 24   29.9 29.9      
Feb 21 06:53 N 6 9 Cloudy OVC006 29 26     89% 23   29.9 29.9     0
Feb 21 05:53 N 7 8 Cloudy OVC005 29 27     92% 22   29.89 29.89      
Feb 21 05:14 N 6 5 Clear   29 27     92% 23   29.91        
Feb 21 04:53 NNW 7 4 Clear   29 27     92% 22   29.92 29.92      
Feb 21 04:27 N 8 3 Fog/Mist OVC004 29 27     92% 21   29.91   0    
Feb 21 03:59 NNW 7 2.5 Light Freezing Rain and Fog/Mist BKN004 OVC011 29 27     92% 22   29.93   0    
Feb 21 03:53 3 3 Fog/Mist BKN004 OVC011 29 27     92% 25   29.93 29.93 0 0  
Feb 21 03:49 N 7 3 Fog/Mist BKN004 OVC011 28 27     93% 21   29.94   0    
Feb 21 03:23 N 8 2.5 Light Freezing Rain and Fog/Mist OVC004 29 27     92% 21   29.94   0    
Feb 21 03:13 NNW 6 2.5 Light Freezing Rain and Fog/Mist OVC003 29 27     92% 23   29.95   0    
Feb 21 03:00 N 6 2 Light Freezing Rain and Fog/Mist OVC005 29 27     92% 23   29.95   0    
Feb 21 02:53 N 5 2.5 Light Freezing Rain and Fog/Mist OVC004 29 27     92% 24   29.95 29.95 0    
Feb 21 02:36 N 5 2.5 Light Freezing Rain and Fog/Mist BKN004 OVC012 29 27     92% 24   29.97   0    
Feb 21 02:27 NNW 6 2.5 Light Freezing Rain and Fog/Mist SCT004 OVC012 29 27     92% 23   29.98   0    
Feb 21 02:08 NNE 5 2.5 Light Freezing Rain and Fog/Mist OVC012 29 27     92% 24   30   0    
Feb 21 01:53 NNE 5 3 Light Freezing Rain and Fog/Mist FEW006 OVC012 29 26     89% 24   30.02 30.02 0    
Feb 21 00:53 N 5 5 Light Freezing Rain and Fog/Mist FEW005 BKN010 OVC015 28 26     92% 23   30.1 30.1 0   0
Feb 21 00:37 N 3 3 Light Freezing Rain and Fog/Mist OVC013 28 26     92% 24   30.12   0    
Feb 21 00:25 NNE 7 3 Freezing Rain and Fog/Mist FEW008 BKN013 OVC019 28 26     92% 21   30.14   0    
Feb 21 00:12 N 6 2.5 Freezing Rain and Fog/Mist SCT007 OVC013 28 25     88% 22   30.16   0    
Feb 21 00:00 NNE 5 2.5 Unknown Precipitation and Fog/Mist BKN008 OVC013 27 25     92% 21   30.16   0    
Feb 20 23:53 N 5 3 Light Freezing Rain and Fog/Mist FEW008 OVC013 28 25     88% 23   30.17 30.17 0    
Feb 20 23:41 N 3 3 Light Freezing Rain and Fog/Mist BKN013 OVC021 27 24     89% 23   30.17   0    
Feb 20 22:53 N 3 2 Light Freezing Rain and Fog/Mist OVC025 27 24     89% 23   30.22 30.22 0    
Feb 20 22:23 N 5 2 Clear   27 24     89% 21   30.25   0    
Feb 20 21:53 NNE 3 2.5 Clear   27 24     89% 23   30.28 30.27 0 0  
Feb 20 21:41 Calm 2 Fog/Mist BKN006 OVC024 26 24     92%     30.28   0    
Feb 20 21:20 Calm 2.5 Light Freezing Rain and Fog/Mist BKN005 BKN012 OVC018 26 24     92%     30.29   0    
Feb 20 20:53 ENE 5 2 Light Freezing Rain and Fog/Mist FEW005 SCT015 OVC020 26 24     92% 20   30.31 30.31 0    
Feb 20 20:45 NNE 5 2 Light Freezing Rain and Fog/Mist FEW016 OVC022 26 24     92% 20   30.32   0    
Feb 20 20:25 NNE 5 1.75 Light Freezing Rain and Fog/Mist OVC028 26 23     88% 20   30.34   0    
Feb 20 20:20 NE 5 1.75 Unknown Precipitation and Fog/Mist OVC032 26 23     88% 20   30.34   0    
Feb 20 20:11 NE 3 2 Unknown Precipitation and Fog/Mist OVC034 26 23     88% 22   30.34   0    
Feb 20 19:53 NE 3 1.5 Light Snow and Fog/Mist OVC030 25 23     92% 21   30.34 30.34 0    
Feb 20 18:53 Calm 1.75 Light Snow and Fog/Mist OVC021 25 22     88%     30.39 30.38 0   0
Feb 20 18:21 SSE 5 1.5 Light Snow OVC023 26 21     81% 20   30.41   0    
Feb 20 18:07 S 6 2.5 Light Snow OVC029 26 20     77% 19   30.41   0    
Feb 20 17:53 S 3 4 Haze OVC039 26 20     77% 22   30.41 30.41      
Feb 20 16:53 S 7 10 Cloudy BKN075 OVC090 27 18     68% 19   30.44 30.43 0    
Feb 20 15:53 S 7 5 Light Snow BKN075 OVC090 28 15     58% 21   30.47 30.47 0 0  
Feb 20 14:53 SSW 6 10 Cloudy OVC090 29 10     45% 23   30.49 30.49      
Feb 20 13:53 S 7 10 Cloudy OVC085 29 11     46% 22   30.51 30.5      
Feb 20 12:53 WSW 5 10 Cloudy OVC100 28 9     44% 23   30.53 30.53      
Feb 20 11:53 SSE 5 10 Mostly Clear FEW120 26 11     52% 20   30.56 30.55      
Feb 20 10:53 Calm 10 Clear CLR 25 12     57%     30.6 30.6      
Feb 20 09:53 ESE 3 10 Clear CLR 24 11     57% 20   30.61 30.6      
Feb 20 08:53 ESE 3 10 Clear CLR 22 11     62% 17   30.61 30.61      
Feb 20 07:53 Calm 10 Clear CLR 21 10     62%     30.63 30.63      
Feb 20 06:53 Calm 10 Clear CLR 20 10     65%     30.59 30.58      
Feb 20 05:53 Calm 10 Clear CLR 19 9     64%     30.61 30.61      
Feb 20 04:53 Calm 10 Clear CLR 20 8     59%     30.62 30.62      
Feb 20 03:53 SSW 5 10 Clear CLR 20 8     59% 13   30.61 30.61      
Feb 20 02:53 NW 6 10 Clear CLR 21 8     57% 13   30.59 30.59      
Feb 20 01:53 WNW 3 10 Clear CLR 21 6     52% 16   30.61 30.6      
Feb 20 00:53 NW 6 10 Clear CLR 22 6     50% 14   30.6 30.6      
Feb 19 23:53 NNW 5 10 Clear CLR 22 4     45% 16   30.59 30.59      
Feb 19 22:53 NNW 8 10 Clear   23 2     39% 14   30.6 30.6      
Feb 19 21:53 NNW 9 10 Clear CLR 24 1     36% 14   30.61 30.61      
Feb 19 20:53 NW 6 10 Clear CLR 24 0     34% 17   30.61 30.61      
Feb 19 19:53 WNW 8 10 Clear CLR 25 0     33% 16   30.59 30.58      
Feb 19 18:53 NNW 9 10 Clear CLR 26 0     32% 17   30.57 30.56      
Feb 19 17:53 NW 9 10 Clear CLR 28 -2     27% 19   30.55 30.55      
Feb 19 16:53 WNW 13 10 Clear CLR 29 -1     27% 19   30.53 30.53      
Feb 19 15:53 WNW 10 10 Clear CLR 30 2     30% 21   30.52 30.52      
Feb 19 14:53 NW 10 10 Clear CLR 30 5     34% 21   30.52 30.52      
Feb 19 13:53 NW 13 10 Clear CLR 30 4     32% 20   30.53 30.52      
Feb 19 12:53 NW 13 10 Clear CLR 30 5     34% 20   30.53 30.53      
Feb 19 11:53 NNW 10 10 Clear CLR 29 5     36% 20   30.55 30.54      
Feb 19 10:53 NW 8 10 Clear CLR 26 5     40% 18   30.55 30.55      
Feb 19 09:53 NNW 7 10 Clear CLR 24 4     41% 16   30.54 30.54      
Feb 19 08:53 N 10 10 Clear CLR 22 3     43% 11   30.52 30.52      
Feb 19 07:53 NW 9 10 Clear CLR 20 3     47% 9   30.51 30.51      
Feb 19 06:53 NW 6 10 Clear   19 3     49% 11   30.47 30.47      
Feb 19 05:53 NNW 6 10 Clear CLR 19 3     49% 11   30.45 30.45      
Feb 19 04:53 NW 7 10 Clear CLR 19 4     51% 10   30.43 30.43      
Feb 19 03:53 WNW 5 10 Clear CLR 19 5     54% 12   30.4 30.4      
Feb 19 02:53 NNW 10 10 Clear CLR 20 5     52% 9   30.38 30.38      
Feb 19 01:53 NW 9 10 Clear CLR 21 5     49% 11   30.36 30.36      
Feb 19 00:53 NNW 10 10 Clear CLR 21 7     54% 10   30.35 30.35      
Feb 18 23:53 WNW 11 10 Clear CLR 22 10     60% 10   30.31 30.31      
Feb 18 22:53 NNW 16 10 Mostly Clear FEW035 24 12     60% 11   30.27 30.27      
Feb 18 21:53 NNW 11 10 Cloudy OVC034 26 14     60% 16   30.23 30.23      
Feb 18 20:53 NNW 7 10 Cloudy OVC032 27 16     63% 19   30.19 30.19      
Feb 18 19:53 NNW 9 10 Clear CLR 28 18     65% 19   30.14 30.14      
Feb 18 18:53 NNW 9 10 Clear CLR 29 19     66% 20   30.08 30.08      
Feb 18 17:53 NW 11 10 Clear CLR 30 19     63% 21   30.02 30.02      
Feb 18 16:53 NNW 17 10 Mostly Clear FEW033 32 19     58% 21   29.96 29.95      
May 15 04:53 S 5 4 Clear   59 58     96%     29.86 29.85      
May 14 13:53 SSE 8 10 Clear CLR 67 55     66%     29.96 29.96      
May 14 04:31 S 3 10 Cloudy BKN012 OVC028 51 48     89%     30.01        
May 12 08:53 N 3 10 Cloudy OVC055 53 37     54%     30.18 30.18      
May 12 01:53 Calm 10 Mostly Clear FEW120 55 35     47%     30.14 30.14      
May 12 00:53 NNE 5 10 Clear CLR 55 37     51%     30.15 30.14      
May 11 21:53 N 5 10 Clear CLR 62 29     28%     30.1 30.1      
May 11 15:53 N 8 10 Clear CLR 69 36     30%     29.99 29.99      
May 11 11:53 NW 13 10 Mostly Clear FEW040 64 38     38%     29.99 29.98      
Jun 11 10:53 5 10 Clear CLR 84 63     49%   85 30.01 30.01      
Jun 10 18:53   10 Clear   79 57     47%   79 29.93 29.93      
Jun 10 12:51 SW 8 10 Mostly Cloudy BKN075 82 55     40%   82 29.95        
Jun 10 08:53 E 3 10 Clear CLR 71 56     59%   71 29.97 29.97      
Jun 09 22:53 S 3 10 Clear CLR 61 55     81%     29.84 29.83      
Jun 08 01:53 Calm 10 Clear CLR 53 50     89%     30.02 30.02      
Jun 07 09:53 NNE 10 10 Cloudy OVC060 59 49     69%     29.99 29.98      
Jun 07 08:53 N 8 10 Cloudy SCT055 BKN070 OVC080 57 50     77%     29.98 29.98      
Jun 06 14:53 N 9 6 Light Rain and Fog/Mist BKN014 OVC019 51 49     92%     29.82 29.82 0    
Notice The following observation data may not be complete
Jun 06 08:11   2.5 Light Rain and Fog/Mist BKN007 OVC014          %         0    
Jun 06 07:49 N 10 2.5 Light Rain and Fog/Mist OVC012 52 48     87%     29.79   0